Location: Edelsbach
(47.0167°N, 15.6000°E)
Time: 23:55:07
(UTC+00:00)

Resurs 1-4 Rocket - Pass Details

Date: 08 August 2020
Orbit: 799 x 815 km, 98.6° (Epoch: 23 September)

Event Time Altitude Azimuth Distance (km) Brightness Sun altitude
Rises 23:01:28 0° 33° (NNE) 3,329 6.1 -27.2°
Reaches altitude 10° 23:05:25 10° 62° (ENE) 2,388 4.9 -27.2°
Maximum altitude 23:07:33 12° 86° (E) 2,219 4.4 -27.2°
Enters shadow 23:08:20 12° 96° (E) 2,240 4.3 -27.2°
